• In Uzbekistan
  • List of Countries
  • For 7 days
  • Water Temperature
  • Satellite Maps
  • Weather Map
  • Weather Widgets
  • user-avatar
    Login

    Hourly Weather Ordino

    Today, 22 October, Monday

    Time Temperature Precipitation Wind Pressure Humidity
    00:00 +7°C° 0 mm 2 mps 635 mmHg 53%
    01:00 +6°C° 0 mm 2 mps 635 mmHg 53%
    02:00 +6°C° 0 mm 2 mps 635 mmHg 53%
    03:00 +6°C° 0 mm 2 mps 635 mmHg 53%
    04:00 +6°C° 0 mm 2 mps 635 mmHg 52%
    05:00 +5°C° 0 mm 2 mps 635 mmHg 51%
    06:00 +5°C° 0 mm 2 mps 636 mmHg 51%
    07:00 +7°C° 0 mm 2 mps 637 mmHg 48%
    08:00 +9°C° 0 mm 2 mps 638 mmHg 45%
    09:00 +12°C° 0 mm 2 mps 639 mmHg 43%
    10:00 +13°C° 0 mm 2 mps 639 mmHg 41%
    11:00 +14°C° 0 mm 2 mps 639 mmHg 40%
    12:00 +15°C° 0 mm 2 mps 640 mmHg 39%
    13:00 +15°C° 0 mm 2 mps 640 mmHg 42%
    14:00 +14°C° 0 mm 2 mps 639 mmHg 46%
    15:00 +13°C° 0 mm 3 mps 639 mmHg 49%
    16:00 +12°C° 0 mm 2 mps 639 mmHg 58%
    17:00 +8°C° 0 mm 2 mps 638 mmHg 67%
    18:00 +6°C° 0 mm 2 mps 638 mmHg 76%
    19:00 +6°C° 0 mm 2 mps 638 mmHg 73%
    20:00 +5°C° 0 mm 2 mps 638 mmHg 71%
    21:00 +5°C° 0 mm 2 mps 638 mmHg 68%
    22:00 +5°C° 0 mm 2 mps 638 mmHg 65%
    23:00 +5°C° 0 mm 2 mps 638 mmHg 63%

    Tomorrow, 23 October, Tuesday

    Time Temperature Precipitation Wind Pressure Humidity
    00:00 +5°C° 0 mm 2 mps 638 mmHg 60%
    01:00 +5°C° 0 mm 2 mps 638 mmHg 60%
    02:00 +4°C° 0 mm 2 mps 638 mmHg 60%
    03:00 +4°C° 0 mm 2 mps 638 mmHg 61%
    04:00 +4°C° 0 mm 2 mps 638 mmHg 61%
    05:00 +4°C° 0 mm 2 mps 638 mmHg 61%
    06:00 +4°C° 0 mm 2 mps 638 mmHg 62%
    07:00 +6°C° 0 mm 2 mps 639 mmHg 57%
    08:00 +8°C° 0 mm 2 mps 640 mmHg 52%
    09:00 +10°C° 0 mm 2 mps 641 mmHg 48%
    10:00 +13°C° 0 mm 2 mps 642 mmHg 46%
    11:00 +14°C° 0 mm 2 mps 642 mmHg 43%
    12:00 +15°C° 0 mm 2 mps 642 mmHg 41%
    13:00 +14°C° 0 mm 2 mps 642 mmHg 43%
    14:00 +14°C° 0 mm 2 mps 641 mmHg 45%
    15:00 +14°C° 0 mm 2 mps 641 mmHg 47%
    16:00 +10°C° 0 mm 2 mps 640 mmHg 55%
    17:00 +8°C° 0 mm 2 mps 640 mmHg 63%
    18:00 +6°C° 0 mm 2 mps 639 mmHg 70%
    19:00 +6°C° 0 mm 2 mps 639 mmHg 66%
    20:00 +5°C° 0 mm 2 mps 639 mmHg 62%
    21:00 +5°C° 0 mm 2 mps 639 mmHg 58%
    22:00 +5°C° 0 mm 2 mps 639 mmHg 56%
    23:00 +5°C° 0 mm 2 mps 639 mmHg 54%

    Day after tomorrow, 24 October, Wednesday

    Time Temperature Precipitation Wind Pressure Humidity
    00:00 +5°C° 0 mm 2 mps 638 mmHg 52%
    01:00 +5°C° 0 mm 2 mps 638 mmHg 52%
    02:00 +5°C° 0 mm 2 mps 638 mmHg 52%
    03:00 +4°C° 0 mm 3 mps 638 mmHg 52%
    04:00 +3°C° 0 mm 3 mps 638 mmHg 50%
    05:00 +3°C° 0 mm 3 mps 638 mmHg 49%
    06:00 +3°C° 0 mm 3 mps 637 mmHg 48%
    07:00 +7°C° 0 mm 3 mps 638 mmHg 44%
    08:00 +9°C° 0 mm 3 mps 639 mmHg 39%
    09:00 +11°C° 0 mm 3 mps 640 mmHg 34%
    10:00 +12°C° 0 mm 3 mps 640 mmHg 33%
    11:00 +14°C° 0 mm 3 mps 640 mmHg 32%
    12:00 +16°C° 0 mm 3 mps 640 mmHg 31%
    13:00 +16°C° 0 mm 3 mps 640 mmHg 35%
    14:00 +14°C° 0 mm 3 mps 639 mmHg 38%
    15:00 +14°C° 0 mm 3 mps 639 mmHg 41%
    16:00 +12°C° 0 mm 3 mps 638 mmHg 47%
    17:00 +10°C° 0 mm 3 mps 637 mmHg 53%
    18:00 +7°C° 0 mm 2 mps 636 mmHg 59%
    19:00 +7°C° 0 mm 2 mps 636 mmHg 59%
    20:00 +7°C° 0 mm 2 mps 636 mmHg 58%
    21:00 +7°C° 0 mm 3 mps 636 mmHg 58%
    22:00 +7°C° 0 mm 2 mps 636 mmHg 57%
    23:00 +7°C° 0 mm 2 mps 636 mmHg 56%

    25 October, Thursday

    Time Temperature Precipitation Wind Pressure Humidity
    00:00 +6°C° 0 mm 2 mps 635 mmHg 55%
    01:00 +6°C° 0 mm 2 mps 635 mmHg 57%
    02:00 +6°C° 0 mm 2 mps 635 mmHg 58%
    03:00 +6°C° 0 mm 2 mps 635 mmHg 59%
    04:00 +6°C° 0 mm 2 mps 635 mmHg 61%
    05:00 +6°C° 0 mm 2 mps 634 mmHg 62%
    06:00 +7°C° 0 mm 1 mps 634 mmHg 63%
    07:00 +9°C° 0 mm 1 mps 635 mmHg 58%
    08:00 +11°C° 0 mm 1 mps 636 mmHg 52%
    09:00 +14°C° 0 mm 1 mps 637 mmHg 47%
    10:00 +15°C° 0 mm 1 mps 637 mmHg 45%
    11:00 +16°C° 0 mm 1 mps 637 mmHg 44%
    12:00 +17°C° 0 mm 2 mps 638 mmHg 42%
    13:00 +16°C° 0 mm 2 mps 637 mmHg 45%
    14:00 +16°C° 0 mm 2 mps 636 mmHg 47%
    15:00 +15°C° 0 mm 2 mps 636 mmHg 50%
    16:00 +13°C° 0 mm 1 mps 635 mmHg 58%
    17:00 +11°C° 0 mm 1 mps 634 mmHg 67%
    18:00 +8°C° 0 mm 1 mps 633 mmHg 75%
    19:00 +8°C° 0 mm 1 mps 633 mmHg 74%
    20:00 +8°C° 0 mm 1 mps 633 mmHg 73%
    21:00 +8°C° 0 mm 1 mps 633 mmHg 72%
    22:00 +7°C° 0 mm 1 mps 633 mmHg 69%
    23:00 +7°C° 0 mm 1 mps 633 mmHg 65%

    26 October, Friday

    Time Temperature Precipitation Wind Pressure Humidity
    00:00 +7°C° 0 mm 1 mps 632 mmHg 62%
    01:00 +7°C° 0 mm 1 mps 632 mmHg 58%
    02:00 +7°C° 0 mm 1 mps 632 mmHg 55%
    03:00 +7°C° 0 mm 1 mps 631 mmHg 51%
    04:00 +7°C° 0 mm 1 mps 631 mmHg 49%
    05:00 +7°C° 0 mm 1 mps 631 mmHg 48%
    06:00 +6°C° 0 mm 1 mps 631 mmHg 46%
    07:00 +8°C° 0 mm 1 mps 632 mmHg 46%
    08:00 +10°C° 0 mm 1 mps 632 mmHg 46%
    09:00 +11°C° 0 mm 1 mps 633 mmHg 46%
    10:00 +12°C° 0 mm 1 mps 633 mmHg 46%
    11:00 +13°C° 0 mm 2 mps 633 mmHg 46%
    12:00 +14°C° 0 mm 2 mps 633 mmHg 47%
    13:00 +13°C° 0 mm 2 mps 632 mmHg 50%
    14:00 +13°C° 0 mm 2 mps 632 mmHg 53%
    15:00 +12°C° 0 mm 2 mps 631 mmHg 56%
    16:00 +11°C° 0 mm 1 mps 630 mmHg 66%
    17:00 +9°C° 0 mm 1 mps 630 mmHg 76%
    18:00 +6°C° 0 mm 0 mps 629 mmHg 86%
    19:00 +6°C° 0.3 mm 0 mps 629 mmHg 87%
    20:00 +7°C° 0.3 mm 1 mps 629 mmHg 88%
    21:00 +7°C° 0.3 mm 1 mps 629 mmHg 88%
    22:00 +7°C° 1 mm 1 mps 629 mmHg 90%
    23:00 +5°C° 1 mm 2 mps 629 mmHg 92%

    27 October, Saturday

    Time Temperature Precipitation Wind Pressure Humidity
    00:00 +5°C° 1 mm 2 mps 629 mmHg 93%
    01:00 +4°C° 0.2 mm 2 mps 628 mmHg 92%
    02:00 +4°C° 0.2 mm 2 mps 628 mmHg 91%
    03:00 +3°C° 0.2 mm 2 mps 627 mmHg 90%
    04:00 +3°C° 0.1 mm 2 mps 627 mmHg 90%
    05:00 +2°C° 0.1 mm 2 mps 627 mmHg 89%
    06:00 +2°C° 0.1 mm 2 mps 627 mmHg 88%
    07:00 +2°C° 0.2 mm 2 mps 627 mmHg 86%
    08:00 +3°C° 0.2 mm 2 mps 627 mmHg 84%
    09:00 +3°C° 0.2 mm 2 mps 626 mmHg 81%
    10:00 +3°C° 0.4 mm 3 mps 626 mmHg 77%
    11:00 +3°C° 0.4 mm 3 mps 626 mmHg 73%
    12:00 +4°C° 0.4 mm 3 mps 626 mmHg 69%
    13:00 +3°C° 0.8 mm 4 mps 625 mmHg 71%
    14:00 +1°C° 0.8 mm 4 mps 625 mmHg 74%
    15:00 0°C° 0.8 mm 4 mps 624 mmHg 77%
    16:00 -1°C° 0.4 mm 4 mps 624 mmHg 78%
    17:00 -3°C° 0.4 mm 4 mps 624 mmHg 78%
    18:00 -4°C° 0.4 mm 3 mps 624 mmHg 79%
    19:00 -5°C° 0 mm 3 mps 624 mmHg 79%
    20:00 -6°C° 0 mm 3 mps 623 mmHg 79%
    21:00 -6°C° 0 mm 2 mps 623 mmHg 79%
    22:00 -6°C° 0 mm 2 mps 623 mmHg 79%
    23:00 -7°C° 0 mm 2 mps 623 mmHg 79%

    28 October, Sunday

    Time Temperature Precipitation Wind Pressure Humidity
    00:00 -7°C° 0 mm 2 mps 622 mmHg 78%
    01:00 -7°C° 0 mm 2 mps 622 mmHg 78%
    02:00 -7°C° 0 mm 2 mps 622 mmHg 77%
    03:00 -7°C° 0 mm 2 mps 622 mmHg 77%
    04:00 -7°C° 0 mm 2 mps 622 mmHg 75%
    05:00 -7°C° 0 mm 2 mps 622 mmHg 74%
    06:00 -7°C° 0 mm 2 mps 623 mmHg 72%
    07:00 -5°C° 0 mm 2 mps 624 mmHg 66%
    08:00 -1°C° 0 mm 1 mps 625 mmHg 59%
    09:00 +1°C° 0 mm 1 mps 626 mmHg 52%
    10:00 -1°C° 0 mm 2 mps 626 mmHg 51%
    11:00 +1°C° 0 mm 2 mps 626 mmHg 51%
    12:00 +2°C° 0 mm 2 mps 627 mmHg 50%
    13:00 +2°C° 0.1 mm 2 mps 626 mmHg 52%
    14:00 +1°C° 0.1 mm 2 mps 626 mmHg 55%
    15:00 +1°C° 0.1 mm 2 mps 626 mmHg 58%
    16:00 -1°C° 0.1 mm 2 mps 626 mmHg 65%
    17:00 -3°C° 0.1 mm 2 mps 626 mmHg 73%
    18:00 -4°C° 0.1 mm 2 mps 625 mmHg 81%
    19:00 -4°C° 0 mm 2 mps 625 mmHg 80%
    20:00 -4°C° 0 mm 2 mps 625 mmHg 80%
    21:00 -6°C° 0 mm 3 mps 625 mmHg 79%
    22:00 -6°C° 0 mm 3 mps 625 mmHg 78%
    23:00 -6°C° 0 mm 3 mps 625 mmHg 78%
    Show more